Regional Weather Roundup
Issued by NWS State College, PA

Home | Current Version | Previous Version | Text Only | Print | Product List | Glossary On
Versions: 1 2 3 4 5 6 7 8 9 10 11 12 13 14 15 16 17 18 19 20 21 22 23 24 25 26 27 28 29 30 31 32 33 34 35 36 37 38 39 40 41 42 43 44 45 46 47 48 49 50
000
ASUS41 KCTP 201210
RWRCTP

REGIONAL WEATHER ROUNDUP
NATIONAL WEATHER SERVICE STATE COLLEGE PA
700 AM EST MON FEB 20 2017

Note: "fair" indicates few or no clouds below 12,000 feet with no
significant weather and/or obstructions to visibility.

* = STATION THAT DOES NOT REPORT PRECIPITATION /E.G. RAIN...SNOW...ETC/
    THUNDER OR FOG.

PAZ002>004-007>009-013>016-020>023-029>032-201300-
WESTERN PENNSYLVANIA

CITY           SKY/WX    TMP DP  RH WIND       PRES   REMARKS
ERIE           CLEAR     29  26  89 CALM      30.26R
MEADVILLE      CLEAR     34  29  82 NE5       30.22R
FRANKLIN*      CLEAR     30  25  80 CALM      30.24R
NEW CASTLE     FAIR      28  26  92 CALM      30.24R
BEAVER COUNTY  NOT AVBL
BUTLER*        CLEAR     30  27  86 NE3       30.24R
PITTSBURGH INT FOG       37  37 100 CALM      30.21S VSB<1/4
PITTSBURGH     CLOUDY    44  42  93 CALM      30.22R FOG
INDIANA*       FOG       36  36 100 CALM      30.25R VSB 0
LATROBE        CLOUDY    45  45 100 W7        30.24R FOG
WASHINGTON CO* CLOUDY    43  43 100 CALM      30.24S
$$

PAZ004>006-010>012-017>019-024>028-033>037-041-042-045-046-049>053-201300-
CENTRAL PENNSYLVANIA

CITY           SKY/WX    TMP DP  RH WIND       PRES   REMARKS
BRADFORD       CLEAR     30  28  92 W3        30.20R
DUBOIS         CLEAR     31  27  85 CALM      30.20R
CLEARFIELD       N/A    N/A N/A N/A MISG      30.21R
JOHNSTOWN      CLEAR     40  38  93 NW10      30.18R FOG
ALTOONA        CLEAR     42  31  64 NW5       30.20R
STATE COLLEGE  CLEAR     39  30  70 CALM      30.20R
WILLIAMSPORT   CLEAR     34  28  79 NW5       30.21R
SELINSGROVE    CLEAR     31  29  92 CALM      30.20R
FT INDIANTOWN  CLEAR     43  31  63 NW3       30.18R
CAPITAL CITY   CLEAR     40  29  64 CALM      30.19R
HARRISBURG     CLEAR     45  30  55 N7        30.18R
YORK           CLEAR     29  27  92 CALM      30.17R
$$

PAZ038>040-043-044-047-048-054-055-060>062-067>071-201300-
EASTERN PENNSYLVANIA

CITY           SKY/WX    TMP DP  RH WIND       PRES   REMARKS
SCRANTON       PTCLDY    37  30  75 N7        30.17R
MOUNT POCONO   CLEAR     32  29  88 NW8       30.10R
ALLENTOWN      CLEAR     37  29  72 N6        30.17R
QUAKERTOWN*    SUNNY     34  32  93 CALM      30.17R
READING        CLEAR     43  33  68 NW5       30.17R
LANCASTER      CLEAR     42  34  73 N7        30.17R
COATESVILLE    SUNNY     45  32  61 CALM      30.17R
POTTSTOWN      CLEAR     39  31  72 N6        30.18R
BLUE BELL      CLEAR     36  32  87 CALM      30.16R
DOYLESTOWN     CLEAR     43  32  65 N3        30.15R
WILLOW GROVE   NOT AVBL
NORTH PHILA    CLEAR     43  32  65 N7        30.18R
PHILADELPHIA   CLEAR     43  32  65 N6        30.17R
$$



USA.gov is the U.S. government's official web portal to all federal, state and local government web resources and services.